C/2017 S3 ( PanSTARRS )

Japanese version
Home page
Updated on May 21, 2018

---------------------------------------------------------------------

* Profile

Discovery Date September 23, 2017
Magnitude 21.5 mag
Discoverer Pan-STARRS 1 telescope (Haleakala)

* Pictures

* Orbital Elements

Epoch 2018 Aug. 30.0 TT = JDT 2458360.5
T 2018 Aug. 15.94536 TT                                 MPCW
q   0.2084467            (2000.0)            P               Q
z  -0.0004184      Peri.  255.89046     +0.21707474     -0.96396224
 +/-0.0000065      Node   171.04048     +0.20807668     +0.19963245
e   1.0000872      Incl.   99.03831     -0.95372043     -0.17585132
From 61 observations 2017 Aug. 17-2018 Mar. 24, mean residual 0".4.

* Finding Charts

* Magnitudes Graph

        m1 = 10.0 + 5 log d + 10.0 log r

---------------------------------------------------------------------

The orbital elements are published on M.P.E.C. 2018-F152.
The charts are made with StellaNavigator Ver.10 (AstroArts).
The magnitudes graphs are made with Comet for Windows.

---------------------------------------------------------------------

Copyright(C) Seiichi Yoshida (comet@aerith.net). All rights reserved.